Year,Month,Day,Hour,Minute,Value (Times are PST for temperature in C)
2011,07,04,00,00,11.40
2011,07,04,00,01,11.40
2011,07,04,00,02,11.40
2011,07,04,00,03,11.40
2011,07,04,00,04,11.30
2011,07,04,00,05,11.30
2011,07,04,00,06,11.20
2011,07,04,00,07,11.20
2011,07,04,00,08,11.20
2011,07,04,00,09,11.10
2011,07,04,00,10,11.10
2011,07,04,00,11,11.10
2011,07,04,00,12,11.00
2011,07,04,00,13,10.90
2011,07,04,00,14,10.90
2011,07,04,00,15,10.90
2011,07,04,00,16,10.90
2011,07,04,00,17,10.90
2011,07,04,00,18,10.90
2011,07,04,00,19,10.90
2011,07,04,00,20,10.90
2011,07,04,00,21,10.90
2011,07,04,00,22,10.90
2011,07,04,00,23,10.90
2011,07,04,00,24,10.90
2011,07,04,00,25,10.90
2011,07,04,00,26,10.80
2011,07,04,00,27,10.80
2011,07,04,00,28,10.80
2011,07,04,00,29,10.70
2011,07,04,00,30,10.70
2011,07,04,00,31,10.60
2011,07,04,00,32,10.60
2011,07,04,00,33,10.60
2011,07,04,00,34,10.60
2011,07,04,00,35,10.60
2011,07,04,00,36,10.60
2011,07,04,00,37,10.60
2011,07,04,00,38,10.60
2011,07,04,00,39,10.60
2011,07,04,00,40,10.60
2011,07,04,00,41,10.70
2011,07,04,00,42,10.70
2011,07,04,00,43,10.70
2011,07,04,00,44,10.70
2011,07,04,00,45,10.70
2011,07,04,00,46,10.80
2011,07,04,00,47,10.80
2011,07,04,00,48,10.90
2011,07,04,00,49,10.90
2011,07,04,00,50,10.90
2011,07,04,00,51,10.90
2011,07,04,00,52,10.90
2011,07,04,00,53,10.80
2011,07,04,00,54,10.80
2011,07,04,00,55,10.80
2011,07,04,00,56,10.70
2011,07,04,00,57,10.70
2011,07,04,00,58,10.70
2011,07,04,00,59,10.60
2011,07,04,01,00,10.60
2011,07,04,01,01,10.60
2011,07,04,01,02,10.60
2011,07,04,01,03,10.60
2011,07,04,01,04,10.60
2011,07,04,01,05,10.50
2011,07,04,01,06,10.40
2011,07,04,01,07,10.40
2011,07,04,01,08,10.40
2011,07,04,01,09,10.40
2011,07,04,01,10,10.40
2011,07,04,01,11,10.30
2011,07,04,01,12,10.30
2011,07,04,01,13,10.30
2011,07,04,01,14,10.20
2011,07,04,01,15,10.20
2011,07,04,01,16,10.20
2011,07,04,01,17,10.20
2011,07,04,01,18,10.20
2011,07,04,01,19,10.10
2011,07,04,01,20,10.10
2011,07,04,01,21,10.10
2011,07,04,01,22,10.10
2011,07,04,01,23,10.10
2011,07,04,01,24,10.10
2011,07,04,01,25,10.10
2011,07,04,01,26,10.10
2011,07,04,01,27,10.10
2011,07,04,01,28,10.10
2011,07,04,01,29,10.10
2011,07,04,01,30,10.10
2011,07,04,01,31,10.00
2011,07,04,01,32,9.90
2011,07,04,01,33,9.90
2011,07,04,01,34,9.90
2011,07,04,01,35,9.90
2011,07,04,01,36,9.90
2011,07,04,01,37,9.90
2011,07,04,01,38,9.90
2011,07,04,01,39,9.90
2011,07,04,01,40,9.90
2011,07,04,01,41,9.90
2011,07,04,01,42,9.90
2011,07,04,01,43,9.90
2011,07,04,01,44,9.90
2011,07,04,01,45,9.90
2011,07,04,01,46,9.90
2011,07,04,01,47,9.90
2011,07,04,01,48,9.80
2011,07,04,01,49,9.80
2011,07,04,01,50,9.80
2011,07,04,01,51,9.70
2011,07,04,01,52,9.70
2011,07,04,01,53,9.70
2011,07,04,01,54,9.70
2011,07,04,01,55,9.60
2011,07,04,01,56,9.60
2011,07,04,01,57,9.60
2011,07,04,01,58,9.60
2011,07,04,01,59,9.60
2011,07,04,02,00,9.70
2011,07,04,02,01,9.70
2011,07,04,02,02,9.70
2011,07,04,02,03,9.60
2011,07,04,02,04,9.60
2011,07,04,02,05,9.60
2011,07,04,02,06,9.60
2011,07,04,02,07,9.50
2011,07,04,02,08,9.50
2011,07,04,02,09,9.50
2011,07,04,02,10,9.50
2011,07,04,02,11,9.50
2011,07,04,02,12,9.60
2011,07,04,02,13,9.70
2011,07,04,02,14,9.70
2011,07,04,02,15,9.70
2011,07,04,02,16,9.70
2011,07,04,02,17,9.70
2011,07,04,02,18,9.70
2011,07,04,02,19,9.70
2011,07,04,02,20,9.70
2011,07,04,02,21,9.70
2011,07,04,02,22,9.70
2011,07,04,02,23,9.70
2011,07,04,02,24,9.60
2011,07,04,02,25,9.60
2011,07,04,02,26,9.60
2011,07,04,02,27,9.60
2011,07,04,02,28,9.60
2011,07,04,02,29,9.60
2011,07,04,02,30,9.60
2011,07,04,02,31,9.50
2011,07,04,02,32,9.60
2011,07,04,02,33,9.50
2011,07,04,02,34,9.60
2011,07,04,02,35,9.60
2011,07,04,02,36,9.60
2011,07,04,02,37,9.70
2011,07,04,02,38,9.70
2011,07,04,02,39,9.60
2011,07,04,02,40,9.60
2011,07,04,02,41,9.60
2011,07,04,02,42,9.60
2011,07,04,02,43,9.50
2011,07,04,02,44,9.50
2011,07,04,02,45,9.40
2011,07,04,02,46,9.40
2011,07,04,02,47,9.40
2011,07,04,02,48,9.40
2011,07,04,02,49,9.30
2011,07,04,02,50,9.30
2011,07,04,02,51,9.30
2011,07,04,02,52,9.30
2011,07,04,02,53,9.40
2011,07,04,02,54,9.40
2011,07,04,02,55,9.40
2011,07,04,02,56,9.50
2011,07,04,02,57,9.50
2011,07,04,02,58,9.50
2011,07,04,02,59,9.50
2011,07,04,03,00,9.40
2011,07,04,03,01,9.40
2011,07,04,03,02,9.40
2011,07,04,03,03,9.30
2011,07,04,03,04,9.30
2011,07,04,03,05,9.20
2011,07,04,03,06,9.20
2011,07,04,03,07,9.20
2011,07,04,03,08,9.20
2011,07,04,03,09,9.10
2011,07,04,03,10,9.10
2011,07,04,03,11,9.10
2011,07,04,03,12,9.00
2011,07,04,03,13,9.00
2011,07,04,03,14,9.00
2011,07,04,03,15,8.90
2011,07,04,03,16,8.90
2011,07,04,03,17,8.90
2011,07,04,03,18,8.90
2011,07,04,03,19,8.90
2011,07,04,03,20,8.90
2011,07,04,03,21,8.80
2011,07,04,03,22,8.80
2011,07,04,03,23,8.70
2011,07,04,03,24,8.70
2011,07,04,03,25,8.70
2011,07,04,03,26,8.70
2011,07,04,03,27,8.70
2011,07,04,03,28,8.70
2011,07,04,03,29,8.80
2011,07,04,03,30,8.80
2011,07,04,03,31,8.90
2011,07,04,03,32,8.90
2011,07,04,03,33,8.90
2011,07,04,03,34,8.90
2011,07,04,03,35,8.90
2011,07,04,03,36,8.90
2011,07,04,03,37,8.90
2011,07,04,03,38,8.90
2011,07,04,03,39,8.90
2011,07,04,03,40,8.90
2011,07,04,03,41,8.80
2011,07,04,03,42,8.80
2011,07,04,03,43,8.70
2011,07,04,03,44,8.70
2011,07,04,03,45,8.70
2011,07,04,03,46,8.70
2011,07,04,03,47,8.80
2011,07,04,03,48,8.80
2011,07,04,03,49,8.70
2011,07,04,03,50,8.70
2011,07,04,03,51,8.70
2011,07,04,03,52,8.70
2011,07,04,03,53,8.70
2011,07,04,03,54,8.70
2011,07,04,03,55,8.70
2011,07,04,03,56,8.60
2011,07,04,03,57,8.60
2011,07,04,03,58,8.50
2011,07,04,03,59,8.40
2011,07,04,04,00,8.40
2011,07,04,04,01,8.40
2011,07,04,04,02,8.30
2011,07,04,04,03,8.30
2011,07,04,04,04,8.30
2011,07,04,04,05,8.30
2011,07,04,04,06,8.30
2011,07,04,04,07,8.30
2011,07,04,04,08,8.30
2011,07,04,04,09,8.30
2011,07,04,04,10,8.30
2011,07,04,04,11,8.30
2011,07,04,04,12,8.30
2011,07,04,04,13,8.30
2011,07,04,04,14,8.30
2011,07,04,04,15,8.30
2011,07,04,04,16,8.40
2011,07,04,04,17,8.40
2011,07,04,04,18,8.40
2011,07,04,04,19,8.40
2011,07,04,04,20,8.30
2011,07,04,04,21,8.40
2011,07,04,04,22,8.40
2011,07,04,04,23,8.40
2011,07,04,04,24,8.40
2011,07,04,04,25,8.40
2011,07,04,04,26,8.40
2011,07,04,04,27,8.40
2011,07,04,04,28,8.40
2011,07,04,04,29,8.30
2011,07,04,04,30,8.30
2011,07,04,04,31,8.30
2011,07,04,04,32,8.30
2011,07,04,04,33,8.30
2011,07,04,04,34,8.40
2011,07,04,04,35,8.40
2011,07,04,04,36,8.40
2011,07,04,04,37,8.30
2011,07,04,04,38,8.40
2011,07,04,04,39,8.40
2011,07,04,04,40,8.40
2011,07,04,04,41,8.40
2011,07,04,04,42,8.50
2011,07,04,04,43,8.40
2011,07,04,04,44,8.40
2011,07,04,04,45,8.40
2011,07,04,04,46,8.30
2011,07,04,04,47,8.20
2011,07,04,04,48,8.20
2011,07,04,04,49,8.20
2011,07,04,04,50,8.20
2011,07,04,04,51,8.20
2011,07,04,04,52,8.20
2011,07,04,04,53,8.10
2011,07,04,04,54,8.10
2011,07,04,04,55,8.10
2011,07,04,04,56,8.20
2011,07,04,04,57,8.20
2011,07,04,04,58,8.20
2011,07,04,04,59,8.20
2011,07,04,05,00,8.20
2011,07,04,05,01,8.20
2011,07,04,05,02,8.20
2011,07,04,05,03,8.20
2011,07,04,05,04,8.20
2011,07,04,05,05,8.20
2011,07,04,05,06,8.20
2011,07,04,05,07,8.20
2011,07,04,05,08,8.20
2011,07,04,05,09,8.20
2011,07,04,05,10,8.20
2011,07,04,05,11,8.20
2011,07,04,05,12,8.20
2011,07,04,05,13,8.20
2011,07,04,05,14,8.20
2011,07,04,05,15,8.20
2011,07,04,05,16,8.20
2011,07,04,05,17,8.20
2011,07,04,05,18,8.20
2011,07,04,05,19,8.30
2011,07,04,05,20,8.40
2011,07,04,05,21,8.40
2011,07,04,05,22,8.40
2011,07,04,05,23,8.40
2011,07,04,05,24,8.40
2011,07,04,05,25,8.50
2011,07,04,05,26,8.40
2011,07,04,05,27,8.40
2011,07,04,05,28,8.40
2011,07,04,05,29,8.40
2011,07,04,05,30,8.40
2011,07,04,05,31,8.40
2011,07,04,05,32,8.40
2011,07,04,05,33,8.40
2011,07,04,05,34,8.40
2011,07,04,05,35,8.40
2011,07,04,05,36,8.40
2011,07,04,05,37,8.40
2011,07,04,05,38,8.40
2011,07,04,05,39,8.40
2011,07,04,05,40,8.40
2011,07,04,05,41,8.40
2011,07,04,05,42,8.40
2011,07,04,05,43,8.40
2011,07,04,05,44,8.40
2011,07,04,05,45,8.50
2011,07,04,05,46,8.50
2011,07,04,05,47,8.50
2011,07,04,05,48,8.60
2011,07,04,05,49,8.70
2011,07,04,05,50,8.70
2011,07,04,05,51,8.70
2011,07,04,05,52,8.80
2011,07,04,05,53,8.90
2011,07,04,05,54,9.00
2011,07,04,05,55,9.00
2011,07,04,05,56,9.00
2011,07,04,05,57,9.10
2011,07,04,05,58,9.10
2011,07,04,05,59,9.10
2011,07,04,06,00,9.10
2011,07,04,06,01,9.10
2011,07,04,06,02,9.20
2011,07,04,06,03,9.20
2011,07,04,06,04,9.20
2011,07,04,06,05,9.20
2011,07,04,06,06,9.20
2011,07,04,06,07,9.20
2011,07,04,06,08,9.30
2011,07,04,06,09,9.30
2011,07,04,06,10,9.40
2011,07,04,06,11,9.40
2011,07,04,06,12,9.40
2011,07,04,06,13,9.50
2011,07,04,06,14,9.50
2011,07,04,06,15,9.50
2011,07,04,06,16,9.50
2011,07,04,06,17,9.60
2011,07,04,06,18,9.60
2011,07,04,06,19,9.60
2011,07,04,06,20,9.70
2011,07,04,06,21,9.70
2011,07,04,06,22,9.70
2011,07,04,06,23,9.80
2011,07,04,06,24,9.80
2011,07,04,06,25,9.90
2011,07,04,06,26,9.90
2011,07,04,06,27,9.90
2011,07,04,06,28,10.00
2011,07,04,06,29,10.10
2011,07,04,06,30,10.20
2011,07,04,06,31,10.20
2011,07,04,06,32,10.30
2011,07,04,06,33,10.30
2011,07,04,06,34,10.40
2011,07,04,06,35,10.50
2011,07,04,06,36,10.60
2011,07,04,06,37,10.60
2011,07,04,06,38,10.70
2011,07,04,06,39,10.80
2011,07,04,06,40,10.90
2011,07,04,06,41,10.90
2011,07,04,06,42,11.00
2011,07,04,06,43,11.10
2011,07,04,06,44,11.10
2011,07,04,06,45,11.20
2011,07,04,06,46,11.20
2011,07,04,06,47,11.30
2011,07,04,06,48,11.40
2011,07,04,06,49,11.40
2011,07,04,06,50,11.40
2011,07,04,06,51,11.40
2011,07,04,06,52,11.40
2011,07,04,06,53,11.40
2011,07,04,06,54,11.50
2011,07,04,06,55,11.60
2011,07,04,06,56,11.60
2011,07,04,06,57,11.70
2011,07,04,06,58,11.70
2011,07,04,06,59,11.70
2011,07,04,07,00,11.80
2011,07,04,07,01,11.90
2011,07,04,07,02,11.90
2011,07,04,07,03,12.00
2011,07,04,07,04,12.10
2011,07,04,07,05,12.10
2011,07,04,07,06,12.20
2011,07,04,07,07,12.20
2011,07,04,07,08,12.20
2011,07,04,07,09,12.30
2011,07,04,07,10,12.30
2011,07,04,07,11,12.30
2011,07,04,07,12,12.40
2011,07,04,07,13,12.50
2011,07,04,07,14,12.60
2011,07,04,07,15,12.70
2011,07,04,07,16,12.80
2011,07,04,07,17,12.90
2011,07,04,07,18,13.00
2011,07,04,07,19,13.10
2011,07,04,07,20,13.20
2011,07,04,07,21,13.30
2011,07,04,07,22,13.30
2011,07,04,07,23,13.30
2011,07,04,07,24,13.40
2011,07,04,07,25,13.50
2011,07,04,07,26,13.50
2011,07,04,07,27,13.60
2011,07,04,07,28,13.60
2011,07,04,07,29,13.70
2011,07,04,07,30,13.70
2011,07,04,07,31,13.90
2011,07,04,07,32,14.00
2011,07,04,07,33,14.10
2011,07,04,07,34,14.20
2011,07,04,07,35,14.30
2011,07,04,07,36,14.50
2011,07,04,07,37,14.60
2011,07,04,07,38,14.70
2011,07,04,07,39,14.80
2011,07,04,07,40,14.90
2011,07,04,07,41,14.90
2011,07,04,07,42,14.80
2011,07,04,07,43,14.80
2011,07,04,07,44,14.80
2011,07,04,07,45,14.70
2011,07,04,07,46,14.70
2011,07,04,07,47,14.70
2011,07,04,07,48,14.70
2011,07,04,07,49,14.70
2011,07,04,07,50,14.80
2011,07,04,07,51,14.90
2011,07,04,07,52,15.00
2011,07,04,07,53,15.10
2011,07,04,07,54,15.20
2011,07,04,07,55,15.30
2011,07,04,07,56,15.40
2011,07,04,07,57,15.50
2011,07,04,07,58,15.60
2011,07,04,07,59,15.80
2011,07,04,08,00,15.80
2011,07,04,08,01,15.90
2011,07,04,08,02,16.00
2011,07,04,08,03,16.10
2011,07,04,08,04,16.10
2011,07,04,08,05,16.10
2011,07,04,08,06,16.20
2011,07,04,08,07,16.30
2011,07,04,08,08,16.30
2011,07,04,08,09,16.40
2011,07,04,08,10,16.40
2011,07,04,08,11,16.60
2011,07,04,08,12,16.60
2011,07,04,08,13,16.70
2011,07,04,08,14,16.70
2011,07,04,08,15,16.70
2011,07,04,08,16,16.70
2011,07,04,08,17,16.70
2011,07,04,08,18,16.70
2011,07,04,08,19,16.70
2011,07,04,08,20,16.70
2011,07,04,08,21,16.80
2011,07,04,08,22,16.80
2011,07,04,08,23,16.80
2011,07,04,08,24,16.90
2011,07,04,08,25,17.00
2011,07,04,08,26,17.10
2011,07,04,08,27,17.10
2011,07,04,08,28,17.10
2011,07,04,08,29,17.00
2011,07,04,08,30,17.00
2011,07,04,08,31,17.00
2011,07,04,08,32,17.10
2011,07,04,08,33,17.10
2011,07,04,08,34,17.20
2011,07,04,08,35,17.20
2011,07,04,08,36,17.30
2011,07,04,08,37,17.30
2011,07,04,08,38,17.30
2011,07,04,08,39,17.30
2011,07,04,08,40,17.30
2011,07,04,08,41,17.30
2011,07,04,08,42,17.30
2011,07,04,08,43,17.40
2011,07,04,08,44,17.50
2011,07,04,08,45,17.50
2011,07,04,08,46,17.50
2011,07,04,08,47,17.60
2011,07,04,08,48,17.60
2011,07,04,08,49,17.70
2011,07,04,08,50,17.60
2011,07,04,08,51,17.60
2011,07,04,08,52,17.50
2011,07,04,08,53,17.50
2011,07,04,08,54,17.50
2011,07,04,08,55,17.60
2011,07,04,08,56,17.70
2011,07,04,08,57,17.80
2011,07,04,08,58,18.00
2011,07,04,08,59,18.00
2011,07,04,09,00,17.90
2011,07,04,09,01,17.90
2011,07,04,09,02,17.90
2011,07,04,09,03,17.90
2011,07,04,09,04,17.90
2011,07,04,09,05,18.00
2011,07,04,09,06,18.10
2011,07,04,09,07,18.10
2011,07,04,09,08,18.20
2011,07,04,09,09,18.20
2011,07,04,09,10,18.20
2011,07,04,09,11,18.30
2011,07,04,09,12,18.30
2011,07,04,09,13,18.30
2011,07,04,09,14,18.30
2011,07,04,09,15,18.30
2011,07,04,09,16,18.30
2011,07,04,09,17,18.30
2011,07,04,09,18,18.20
2011,07,04,09,19,18.40
2011,07,04,09,20,18.40
2011,07,04,09,21,18.50
2011,07,04,09,22,18.50
2011,07,04,09,23,18.50
2011,07,04,09,24,18.50
2011,07,04,09,25,18.50
2011,07,04,09,26,18.60
2011,07,04,09,27,18.60
2011,07,04,09,28,18.70
2011,07,04,09,29,18.80
2011,07,04,09,30,18.90
2011,07,04,09,31,18.90
2011,07,04,09,32,18.90
2011,07,04,09,33,18.90
2011,07,04,09,34,18.90
2011,07,04,09,35,18.90
2011,07,04,09,36,19.00
2011,07,04,09,37,19.10
2011,07,04,09,38,19.10
2011,07,04,09,39,19.10
2011,07,04,09,40,19.20
2011,07,04,09,41,19.20
2011,07,04,09,42,19.20
2011,07,04,09,43,19.30
2011,07,04,09,44,19.30
2011,07,04,09,45,19.30
2011,07,04,09,46,19.30
2011,07,04,09,47,19.30
2011,07,04,09,48,19.30
2011,07,04,09,49,19.30
2011,07,04,09,50,19.30
2011,07,04,09,51,19.20
2011,07,04,09,52,19.20
2011,07,04,09,53,19.20
2011,07,04,09,54,19.10
2011,07,04,09,55,19.10
2011,07,04,09,56,19.30
2011,07,04,09,57,19.30
2011,07,04,09,58,19.30
2011,07,04,09,59,19.40
2011,07,04,10,00,19.40
2011,07,04,10,01,19.30
2011,07,04,10,02,19.10
2011,07,04,10,03,19.10
2011,07,04,10,04,19.10
2011,07,04,10,05,19.10
2011,07,04,10,06,19.10
2011,07,04,10,07,19.10
2011,07,04,10,08,19.20
2011,07,04,10,09,19.30
2011,07,04,10,10,19.50
2011,07,04,10,11,19.50
2011,07,04,10,12,19.50
2011,07,04,10,13,19.40
2011,07,04,10,14,19.30
2011,07,04,10,15,19.20
2011,07,04,10,16,19.00
2011,07,04,10,17,18.90
2011,07,04,10,18,18.90
2011,07,04,10,19,19.00
2011,07,04,10,20,19.10
2011,07,04,10,21,19.10
2011,07,04,10,22,19.10
2011,07,04,10,23,19.10
2011,07,04,10,24,19.10
2011,07,04,10,25,19.10
2011,07,04,10,26,19.20
2011,07,04,10,27,19.20
2011,07,04,10,28,19.20
2011,07,04,10,29,19.10
2011,07,04,10,30,19.10
2011,07,04,10,31,19.10
2011,07,04,10,32,19.10
2011,07,04,10,33,19.20
2011,07,04,10,34,19.20
2011,07,04,10,35,19.20
2011,07,04,10,36,19.30
2011,07,04,10,37,19.40
2011,07,04,10,38,19.50
2011,07,04,10,39,19.60
2011,07,04,10,40,19.70
2011,07,04,10,41,19.90
2011,07,04,10,42,19.90
2011,07,04,10,43,19.80
2011,07,04,10,44,19.70
2011,07,04,10,45,19.50
2011,07,04,10,46,19.50
2011,07,04,10,47,19.60
2011,07,04,10,48,19.60
2011,07,04,10,49,19.60
2011,07,04,10,50,19.80
2011,07,04,10,51,20.00
2011,07,04,10,52,20.10
2011,07,04,10,53,20.20
2011,07,04,10,54,20.20
2011,07,04,10,55,20.20
2011,07,04,10,56,20.20
2011,07,04,10,57,20.20
2011,07,04,10,58,20.20
2011,07,04,10,59,20.20
2011,07,04,11,00,20.20
2011,07,04,11,01,20.20
2011,07,04,11,02,20.20
2011,07,04,11,03,20.30
2011,07,04,11,04,20.40
2011,07,04,11,05,20.60
2011,07,04,11,06,20.70
2011,07,04,11,07,20.80
2011,07,04,11,08,20.80
2011,07,04,11,09,20.80
2011,07,04,11,10,20.60
2011,07,04,11,11,20.50
2011,07,04,11,12,20.50
2011,07,04,11,13,20.50
2011,07,04,11,14,20.40
2011,07,04,11,15,20.30
2011,07,04,11,16,20.20
2011,07,04,11,17,20.20
2011,07,04,11,18,20.20
2011,07,04,11,19,20.20
2011,07,04,11,20,20.30
2011,07,04,11,21,20.40
2011,07,04,11,22,20.50
2011,07,04,11,23,20.60
2011,07,04,11,24,20.60
2011,07,04,11,25,20.70
2011,07,04,11,26,20.70
2011,07,04,11,27,20.70
2011,07,04,11,28,20.70
2011,07,04,11,29,20.70
2011,07,04,11,30,20.70
2011,07,04,11,31,20.60
2011,07,04,11,32,20.50
2011,07,04,11,33,20.30
2011,07,04,11,34,20.10
2011,07,04,11,35,20.00
2011,07,04,11,36,20.00
2011,07,04,11,37,20.10
2011,07,04,11,38,20.10
2011,07,04,11,39,19.90
2011,07,04,11,40,19.80
2011,07,04,11,41,19.60
2011,07,04,11,42,19.60
2011,07,04,11,43,19.60
2011,07,04,11,44,19.50
2011,07,04,11,45,19.40
2011,07,04,11,46,19.40
2011,07,04,11,47,19.30
2011,07,04,11,48,19.20
2011,07,04,11,49,19.20
2011,07,04,11,50,19.20
2011,07,04,11,51,19.10
2011,07,04,11,52,19.10
2011,07,04,11,53,19.10
2011,07,04,11,54,19.20
2011,07,04,11,55,19.30
2011,07,04,11,56,19.50
2011,07,04,11,57,19.60
2011,07,04,11,58,19.50
2011,07,04,11,59,19.40
2011,07,04,12,00,19.50
2011,07,04,12,01,19.50
2011,07,04,12,02,19.60
2011,07,04,12,03,19.60
2011,07,04,12,04,19.50
2011,07,04,12,05,19.40
2011,07,04,12,06,19.30
2011,07,04,12,07,19.30
2011,07,04,12,08,19.40
2011,07,04,12,09,19.60
2011,07,04,12,10,19.70
2011,07,04,12,11,19.80
2011,07,04,12,12,19.90
2011,07,04,12,13,19.70
2011,07,04,12,14,19.50
2011,07,04,12,15,19.40
2011,07,04,12,16,19.40
2011,07,04,12,17,19.20
2011,07,04,12,18,19.10
2011,07,04,12,19,19.10
2011,07,04,12,20,19.20
2011,07,04,12,21,19.30
2011,07,04,12,22,19.50
2011,07,04,12,23,19.70
2011,07,04,12,24,19.70
2011,07,04,12,25,19.80
2011,07,04,12,26,19.90
2011,07,04,12,27,19.90
2011,07,04,12,28,20.00
2011,07,04,12,29,19.90
2011,07,04,12,30,19.90
2011,07,04,12,31,19.90
2011,07,04,12,32,19.90
2011,07,04,12,33,19.80
2011,07,04,12,34,19.70
2011,07,04,12,35,19.50
2011,07,04,12,36,19.40
2011,07,04,12,37,19.40
2011,07,04,12,38,19.40
2011,07,04,12,39,19.50
2011,07,04,12,40,19.50
2011,07,04,12,41,19.50
2011,07,04,12,42,19.50
2011,07,04,12,43,19.50
2011,07,04,12,44,19.50
2011,07,04,12,45,19.60
2011,07,04,12,46,19.60
2011,07,04,12,47,19.60
2011,07,04,12,48,19.60
2011,07,04,12,49,19.60
2011,07,04,12,50,19.60
2011,07,04,12,51,19.60
2011,07,04,12,52,19.50
2011,07,04,12,53,19.40
2011,07,04,12,54,19.30
2011,07,04,12,55,19.20
2011,07,04,12,56,19.20
2011,07,04,12,57,19.20
2011,07,04,12,58,19.40
2011,07,04,12,59,19.50
2011,07,04,13,00,19.70
2011,07,04,13,01,19.90
2011,07,04,13,02,20.10
2011,07,04,13,03,20.30
2011,07,04,13,04,20.40
2011,07,04,13,05,20.50
2011,07,04,13,06,20.50
2011,07,04,13,07,20.60
2011,07,04,13,08,20.50
2011,07,04,13,09,20.40
2011,07,04,13,10,20.20
2011,07,04,13,11,20.20
2011,07,04,13,12,20.30
2011,07,04,13,13,20.30
2011,07,04,13,14,20.40
2011,07,04,13,15,20.50
2011,07,04,13,16,20.50
2011,07,04,13,17,20.60
2011,07,04,13,18,20.60
2011,07,04,13,19,20.60
2011,07,04,13,20,20.50
2011,07,04,13,21,20.50
2011,07,04,13,22,20.40
2011,07,04,13,23,20.30
2011,07,04,13,24,20.30
2011,07,04,13,25,20.40
2011,07,04,13,26,20.50
2011,07,04,13,27,20.50
2011,07,04,13,28,20.60
2011,07,04,13,29,20.50
2011,07,04,13,30,20.50
2011,07,04,13,31,20.60
2011,07,04,13,32,20.60
2011,07,04,13,33,20.60
2011,07,04,13,34,20.70
2011,07,04,13,35,20.80
2011,07,04,13,36,20.80
2011,07,04,13,37,20.70
2011,07,04,13,38,20.70
2011,07,04,13,39,20.80
2011,07,04,13,40,20.90
2011,07,04,13,41,20.90
2011,07,04,13,42,21.00
2011,07,04,13,43,21.10
2011,07,04,13,44,21.10
2011,07,04,13,45,21.00
2011,07,04,13,46,21.00
2011,07,04,13,47,21.00
2011,07,04,13,48,21.00
2011,07,04,13,49,21.00
2011,07,04,13,50,21.00
2011,07,04,13,51,21.00
2011,07,04,13,52,21.00
2011,07,04,13,53,21.00
2011,07,04,13,54,21.00
2011,07,04,13,55,21.10
2011,07,04,13,56,21.10
2011,07,04,13,57,21.10
2011,07,04,13,58,21.00
2011,07,04,13,59,21.00
2011,07,04,14,00,21.00
2011,07,04,14,01,21.10
2011,07,04,14,02,21.10
2011,07,04,14,03,21.20
2011,07,04,14,04,21.30
2011,07,04,14,05,21.30
2011,07,04,14,06,21.30
2011,07,04,14,07,21.10
2011,07,04,14,08,20.90
2011,07,04,14,09,20.80
2011,07,04,14,10,20.70
2011,07,04,14,11,20.70
2011,07,04,14,12,20.50
2011,07,04,14,13,20.30
2011,07,04,14,14,20.20
2011,07,04,14,15,20.20
2011,07,04,14,16,20.20
2011,07,04,14,17,20.20
2011,07,04,14,18,20.20
2011,07,04,14,19,20.20
2011,07,04,14,20,20.10
2011,07,04,14,21,20.10
2011,07,04,14,22,20.00
2011,07,04,14,23,19.90
2011,07,04,14,24,19.90
2011,07,04,14,25,19.90
2011,07,04,14,26,19.90
2011,07,04,14,27,20.00
2011,07,04,14,28,20.10
2011,07,04,14,29,20.20
2011,07,04,14,30,20.30
2011,07,04,14,31,20.50
2011,07,04,14,32,20.60
2011,07,04,14,33,20.80
2011,07,04,14,34,20.90
2011,07,04,14,35,21.10
2011,07,04,14,36,21.20
2011,07,04,14,37,21.30
2011,07,04,14,38,21.20
2011,07,04,14,39,21.20
2011,07,04,14,40,21.00
2011,07,04,14,41,20.80
2011,07,04,14,42,20.70
2011,07,04,14,43,20.60
2011,07,04,14,44,20.70
2011,07,04,14,45,20.80
2011,07,04,14,46,20.90
2011,07,04,14,47,21.10
2011,07,04,14,48,21.20
2011,07,04,14,49,21.30
2011,07,04,14,50,21.30
2011,07,04,14,51,21.30
2011,07,04,14,52,21.40
2011,07,04,14,53,21.50
2011,07,04,14,54,21.60
2011,07,04,14,55,21.60
2011,07,04,14,56,21.60
2011,07,04,14,57,21.50
2011,07,04,14,58,21.40
2011,07,04,14,59,21.30
2011,07,04,15,00,21.30
2011,07,04,15,01,21.40
2011,07,04,15,02,21.60
2011,07,04,15,03,21.60
2011,07,04,15,04,21.60
2011,07,04,15,05,21.50
2011,07,04,15,06,21.40
2011,07,04,15,07,21.40
2011,07,04,15,08,21.30
2011,07,04,15,09,21.30
2011,07,04,15,10,21.30
2011,07,04,15,11,21.20
2011,07,04,15,12,21.20
2011,07,04,15,13,21.20
2011,07,04,15,14,21.30
2011,07,04,15,15,21.30
2011,07,04,15,16,21.30
2011,07,04,15,17,21.30
2011,07,04,15,18,21.40
2011,07,04,15,19,21.40
2011,07,04,15,20,21.50
2011,07,04,15,21,21.60
2011,07,04,15,22,21.60
2011,07,04,15,23,21.60
2011,07,04,15,24,21.60
2011,07,04,15,25,21.60
2011,07,04,15,26,21.60
2011,07,04,15,27,21.40
2011,07,04,15,28,21.40
2011,07,04,15,29,21.40
2011,07,04,15,30,21.60
2011,07,04,15,31,21.60
2011,07,04,15,32,21.60
2011,07,04,15,33,21.70
2011,07,04,15,34,21.70
2011,07,04,15,35,21.90
2011,07,04,15,36,21.90
2011,07,04,15,37,21.90
2011,07,04,15,38,21.70
2011,07,04,15,39,21.70
2011,07,04,15,40,21.70
2011,07,04,15,41,21.60
2011,07,04,15,42,21.50
2011,07,04,15,43,21.30
2011,07,04,15,44,21.30
2011,07,04,15,45,21.30
2011,07,04,15,46,21.30
2011,07,04,15,47,21.30
2011,07,04,15,48,21.30
2011,07,04,15,49,21.30
2011,07,04,15,50,21.30
2011,07,04,15,51,21.30
2011,07,04,15,52,21.40
2011,07,04,15,53,21.50
2011,07,04,15,54,21.60
2011,07,04,15,55,21.60
2011,07,04,15,56,21.60
2011,07,04,15,57,21.60
2011,07,04,15,58,21.60
2011,07,04,15,59,21.60
2011,07,04,16,00,21.60
2011,07,04,16,01,21.60
2011,07,04,16,02,21.60
2011,07,04,16,03,21.60
2011,07,04,16,04,21.60
2011,07,04,16,05,21.50
2011,07,04,16,06,21.40
2011,07,04,16,07,21.30
2011,07,04,16,08,21.20
2011,07,04,16,09,21.20
2011,07,04,16,10,21.20
2011,07,04,16,11,21.30
2011,07,04,16,12,21.30
2011,07,04,16,13,21.20
2011,07,04,16,14,21.10
2011,07,04,16,15,21.10
2011,07,04,16,16,21.10
2011,07,04,16,17,21.20
2011,07,04,16,18,21.20
2011,07,04,16,19,21.20
2011,07,04,16,20,21.10
2011,07,04,16,21,21.10
2011,07,04,16,22,21.20
2011,07,04,16,23,21.20
2011,07,04,16,24,21.20
2011,07,04,16,25,21.20
2011,07,04,16,26,21.20
2011,07,04,16,27,21.20
2011,07,04,16,28,21.30
2011,07,04,16,29,21.30
2011,07,04,16,30,21.30
2011,07,04,16,31,21.40
2011,07,04,16,32,21.40
2011,07,04,16,33,21.50
2011,07,04,16,34,21.50
2011,07,04,16,35,21.40
2011,07,04,16,36,21.40
2011,07,04,16,37,21.30
2011,07,04,16,38,21.30
2011,07,04,16,39,21.30
2011,07,04,16,40,21.30
2011,07,04,16,41,21.30
2011,07,04,16,42,21.30
2011,07,04,16,43,21.30
2011,07,04,16,44,21.20
2011,07,04,16,45,21.20
2011,07,04,16,46,21.20
2011,07,04,16,47,21.20
2011,07,04,16,48,21.00
2011,07,04,16,49,20.90
2011,07,04,16,50,20.80
2011,07,04,16,51,20.70
2011,07,04,16,52,20.70
2011,07,04,16,53,20.70
2011,07,04,16,54,20.60
2011,07,04,16,55,20.50
2011,07,04,16,56,20.50
2011,07,04,16,57,20.50
2011,07,04,16,58,20.50
2011,07,04,16,59,20.50
2011,07,04,17,00,20.50
2011,07,04,17,01,20.40
2011,07,04,17,02,20.40
2011,07,04,17,03,20.50
2011,07,04,17,04,20.50
2011,07,04,17,05,20.60
2011,07,04,17,06,20.70
2011,07,04,17,07,20.70
2011,07,04,17,08,20.70
2011,07,04,17,09,20.70
2011,07,04,17,10,20.70
2011,07,04,17,11,20.60
2011,07,04,17,12,20.70
2011,07,04,17,13,20.70
2011,07,04,17,14,20.80
2011,07,04,17,15,20.90
2011,07,04,17,16,20.90
2011,07,04,17,17,20.90
2011,07,04,17,18,21.00
2011,07,04,17,19,21.00
2011,07,04,17,20,21.10
2011,07,04,17,21,21.10
2011,07,04,17,22,21.20
2011,07,04,17,23,21.30
2011,07,04,17,24,21.40
2011,07,04,17,25,21.40
2011,07,04,17,26,21.50
2011,07,04,17,27,21.60
2011,07,04,17,28,21.60
2011,07,04,17,29,21.60
2011,07,04,17,30,21.60
2011,07,04,17,31,21.50
2011,07,04,17,32,21.40